Regional Weather Roundup
Issued by NWS

Home | Current Version | Previous Version | Graphics & Text | Print | Product List | Glossary On
Versions: 1 2 3 4 5 6 7 8 9 10 11 12 13 14 15 16 17 18 19 20 21 22 23 24 25 26 27 28 29 30 31 32 33 34 35 36 37 38 39 40 41 42 43 44 45 46 47 48 49 50
687
ASUS43 KFSD 111002
RWRSD

WEATHER ROUNDUP FOR SOUTH DAKOTA
NATIONAL WEATHER SERVICE SIOUX FALLS SD
400 AM CST THU FEB 11 2016

NOTE: "FAIR" INDICATES FEW OR NO CLOUDS BELOW 12,000 FEET WITH NO
SIGNIFICANT WEATHER AND/OR OBSTRUCTIONS TO VISIBILITY.


SDZ001>005-009-010-012>017-111100-
NORTHWEST AND NORTH CENTRAL SOUTH DAKOTA

CITY           SKY/WX    TMP DP  RH WIND       PRES   REMARKS
BUFFALO          N/A     31  28  89 S9        29.96F WCI  23
FAITH            N/A     29  25  85 S9        30.07F WCI  20
MOBRIDGE       CLOUDY    19  15  84 SE7       30.13F WCI  10
$$

SDZ012>016-024>037-041>051-057-063-072>074-111100-
SOUTHWEST AND SOUTH CENTRAL SOUTH DAKOTA

CITY           SKY/WX    TMP DP  RH WIND       PRES   REMARKS
RAPID CTY ARPT CLOUDY    28  26  92 S12       30.04F FOG     WCI  18
PIERRE         CLOUDY    21  19  92 E5        30.17S WCI  15
CUSTER         CLOUDY    34  21  59 SW6       30.02F WCI  29
ELLSWORTH AFB  CLOUDY    28  28  99 S13       30.02  WCI  17
PHILIP         CLOUDY    30  27  88 SE5       30.11F WCI  25
PINE RIDGE     CLEAR     23  19  85 CALM      30.06F
WINNER         CLOUDY    26  21  81 E6        30.15F WCI  19
$$

SDZ004>011-016>023-039-040-111100-
NORTHEAST SOUTH DAKOTA

CITY           SKY/WX    TMP DP  RH WIND       PRES   REMARKS
ABERDEEN       CLOUDY    14   9  80 CALM      30.25R
WATERTOWN      CLOUDY    11   5  77 SE5       30.20F WCI   3
BROOKINGS      CLOUDY    11   6  81 S3        30.23R
SISSETON         N/A      0  -3  87 CALM      30.26F
$$

SDZ017-020-022-023-036>040-048>070-111100-
SOUTHEAST SOUTH DAKOTA

CITY           SKY/WX    TMP DP  RH WIND       PRES   REMARKS
SIOUX FALLS    CLOUDY    13   4  67 E5        30.24S WCI   5
HURON          CLOUDY    16  10  77 CALM      30.24F
MITCHELL       CLOUDY    18  12  77 SE6       30.26R WCI  10
YANKTON        CLOUDY    16   9  73 E6        30.26S WCI   7
$$

ABBREVIATIONS USED IN REMARKS
   TC - TEMPERATURE IN CELSIUS
  WCI - WIND CHILL INDEX
   HX - HEAT INDEX
  VSB - VISIBILITY





USA.gov is the U.S. government's official web portal to all federal, state and local government web resources and services.